Location: *
(0.1100°N, 5.5000°E)
Time: 13:53:08
(UTC+00:00)

CZ-4 R/B - Pass Details

Date: 07 December 2022
Orbit: 527 x 589 km, 97.7° (Epoch: 02 February)

Event Time Altitude Azimuth Distance (km) Brightness Sun altitude
Rises 19:22:54 0° 176° (S) 2,669 5.1 -26.0°
Reaches altitude 10° 19:25:03 10° 181° (S) 1,773 4.2 -26.5°
Enters shadow 19:27:23 33° 199° (SSW) 891 2.7 -27.0°
